iso_date,Year,Hour,Min,DOY,POS_DOY,Lat,Lon,BP,Ts,Ta,has_bp,has_ts,has_ta,BuoyID,Buoy_Type,Buoy_Owner,Logistics,Hemisphere
2022-08-22T16:26:41Z,2022,16,26,234.6852,234.6852,82.25655,19.93247,1009.8,9.51,3.0,yes,yes,yes,300434063448890,SIMB3,CRREL,unknown,North
2022-08-22T20:01:06Z,2022,20,1,234.8341,234.8341,82.5267,21.89694,1008.8,-1.74,-1.75,yes,yes,yes,300434063448890,SIMB3,CRREL,unknown,North
2022-08-23T00:00:51Z,2022,0,0,235.0006,235.0006,82.86998,25.22617,1008.0,-3.49,-3.38,yes,yes,yes,300434063448890,SIMB3,CRREL,unknown,North
2022-08-23T04:01:03Z,2022,4,1,235.1674,235.1674,83.27748,28.03838,1006.6,-3.21,-3.06,yes,yes,yes,300434063448890,SIMB3,CRREL,unknown,North
2022-08-23T08:04:16Z,2022,8,4,235.3363,235.3363,83.7757,30.06659,1004.9,-1.85,-1.88,yes,yes,yes,300434063448890,SIMB3,CRREL,unknown,North
2022-08-23T12:03:10Z,2022,12,3,235.5022,235.5022,84.13034,31.89839,1005.4,-0.65,-0.69,yes,yes,yes,300434063448890,SIMB3,CRREL,unknown,North
2022-08-23T16:02:03Z,2022,16,2,235.6681,235.6681,84.57374,34.16187,1006.3,-0.5,-0.62,yes,yes,yes,300434063448890,SIMB3,CRREL,unknown,North
2022-08-24T00:01:09Z,2022,0,1,236.0008,236.0008,85.31447,38.72809,1001.5,-5.67,-5.44,yes,yes,yes,300434063448890,SIMB3,CRREL,unknown,North
2022-08-24T04:01:55Z,2022,4,1,236.168,236.168,85.72894,41.5026,994.7,-2.08,-2.12,yes,yes,yes,300434063448890,SIMB3,CRREL,unknown,North
2022-08-24T08:01:06Z,2022,8,1,236.3341,236.3341,86.08915,42.08066,993.8,-1.08,-1.19,yes,yes,yes,300434063448890,SIMB3,CRREL,unknown,North
2022-08-24T12:02:00Z,2022,12,2,236.5014,236.5014,86.56451,42.6714,996.3,-1.34,-1.62,yes,yes,yes,300434063448890,SIMB3,CRREL,unknown,North
2022-08-24T16:01:55Z,2022,16,1,236.668,236.668,87.06386,42.99244,1001.1,-1.93,-2.0,yes,yes,yes,300434063448890,SIMB3,CRREL,unknown,North
2022-08-26T11:12:37Z,2022,11,12,238.4671,238.4671,89.9382,-38.71081,1020.7,0.3,-1.06,yes,yes,yes,300434063448890,SIMB3,CRREL,unknown,North
2022-08-26T12:00:51Z,2022,12,0,238.5006,238.5006,89.93693,-38.03005,1021.1,-1.74,-0.81,yes,yes,yes,300434063448890,SIMB3,CRREL,unknown,North
2022-08-26T16:00:54Z,2022,16,0,238.6673,238.6673,89.92852,-32.50226,1022.1,-1.74,-0.75,yes,yes,yes,300434063448890,SIMB3,CRREL,unknown,North
2022-08-26T20:00:57Z,2022,20,0,238.834,238.834,89.91629,-31.50991,1023.2,-1.74,-1.06,yes,yes,yes,300434063448890,SIMB3,CRREL,unknown,North
2022-08-27T00:01:00Z,2022,0,1,239.0007,239.0007,89.9088,-30.09024,1024.6,-1.74,-0.69,yes,yes,yes,300434063448890,SIMB3,CRREL,unknown,North
2022-08-27T04:02:29Z,2022,4,2,239.1684,239.1684,89.90162,-26.90468,1025.3,-1.74,-0.5,yes,yes,yes,300434063448890,SIMB3,CRREL,unknown,North
2022-08-27T08:00:48Z,2022,8,0,239.3339,239.3339,89.89224,-25.88495,1026.3,-1.74,0.12,yes,yes,yes,300434063448890,SIMB3,CRREL,unknown,North
2022-08-27T12:01:17Z,2022,12,1,239.5009,239.5009,89.88731,-24.8035,1027.6,-1.74,-1.06,yes,yes,yes,300434063448890,SIMB3,CRREL,unknown,North
2022-08-27T16:01:03Z,2022,16,0,239.6674,239.6674,89.88258,-22.85119,1028.2,-1.74,-4.0,yes,yes,yes,300434063448890,SIMB3,CRREL,unknown,North
2022-08-27T20:00:48Z,2022,20,0,239.8339,239.8339,89.87558,-22.21473,1029.0,-1.74,-4.75,yes,yes,yes,300434063448890,SIMB3,CRREL,unknown,North
2022-08-28T00:03:18Z,2022,0,3,240.0023,240.0023,89.87152,-21.32906,1029.8,-1.74,-6.31,yes,yes,yes,300434063448890,SIMB3,CRREL,unknown,North
2022-08-28T04:01:03Z,2022,4,1,240.1674,240.1674,89.86641,-19.6945,1030.1,-1.74,-5.94,yes,yes,yes,300434063448890,SIMB3,CRREL,unknown,North
2022-08-28T08:02:15Z,2022,8,2,240.3349,240.3349,89.86114,-19.27958,1030.6,-1.74,-4.94,yes,yes,yes,300434063448890,SIMB3,CRREL,unknown,North
2022-08-28T12:01:00Z,2022,12,0,240.5007,240.5007,89.85589,-18.64865,1031.2,-1.74,-4.75,yes,yes,yes,300434063448890,SIMB3,CRREL,unknown,North
2022-08-28T16:01:03Z,2022,16,1,240.6674,240.6674,89.85078,-16.95729,1031.2,-1.74,-2.19,yes,yes,yes,300434063448890,SIMB3,CRREL,unknown,North
2022-08-28T20:00:57Z,2022,20,0,240.834,240.834,89.84432,-15.68039,1031.5,-1.74,-2.88,yes,yes,yes,300434063448890,SIMB3,CRREL,unknown,North
2022-08-29T00:01:17Z,2022,0,1,241.0009,241.0009,89.83776,-14.64367,1032.0,-1.74,-2.56,yes,yes,yes,300434063448890,SIMB3,CRREL,unknown,North
2022-08-29T04:00:54Z,2022,4,0,241.1673,241.1673,89.83046,-13.61039,1032.2,-1.74,-3.0,yes,yes,yes,300434063448890,SIMB3,CRREL,unknown,North
2022-08-29T08:00:48Z,2022,8,0,241.3339,241.3339,89.82282,-13.10503,1032.6,-1.74,-0.69,yes,yes,yes,300434063448890,SIMB3,CRREL,unknown,North
2022-08-29T12:00:51Z,2022,12,0,241.5006,241.5006,89.81478,-13.00581,1032.6,-1.74,-5.38,yes,yes,yes,300434063448890,SIMB3,CRREL,unknown,North
2022-08-29T16:00:54Z,2022,16,0,241.6673,241.6673,89.80944,-13.01922,1031.9,-1.74,-6.31,yes,yes,yes,300434063448890,SIMB3,CRREL,unknown,North
2022-08-29T20:00:57Z,2022,20,0,241.834,241.834,89.80568,-12.76351,1031.7,-1.74,-4.5,yes,yes,yes,300434063448890,SIMB3,CRREL,unknown,North
2022-08-30T00:01:00Z,2022,0,1,242.0007,242.0007,89.80347,-11.98358,1031.4,-1.74,-3.88,yes,yes,yes,300434063448890,SIMB3,CRREL,unknown,North
2022-08-30T04:02:38Z,2022,4,2,242.1685,242.1685,89.80448,-11.71259,1030.8,-1.74,-3.25,yes,yes,yes,300434063448890,SIMB3,CRREL,unknown,North
2022-08-30T08:00:48Z,2022,8,0,242.3339,242.3339,89.80969,-10.86614,1030.3,-1.74,-3.69,yes,yes,yes,300434063448890,SIMB3,CRREL,unknown,North
2022-08-30T12:01:43Z,2022,12,1,242.5012,242.5012,89.81442,-11.24131,1029.3,-1.74,-3.44,yes,yes,yes,300434063448890,SIMB3,CRREL,unknown,North
2022-08-30T16:01:20Z,2022,16,1,242.6676,242.6676,89.82676,-14.20968,1026.5,-1.74,-3.25,yes,yes,yes,300434063448890,SIMB3,CRREL,unknown,North
2022-08-30T20:00:57Z,2022,20,0,242.834,242.834,89.84593,-18.54482,1024.2,-1.74,-2.88,yes,yes,yes,300434063448890,SIMB3,CRREL,unknown,North
2022-08-31T00:03:27Z,2022,0,3,243.0024,243.0024,89.86552,-22.75331,1022.7,-1.74,-3.69,yes,yes,yes,300434063448890,SIMB3,CRREL,unknown,North
2022-08-31T04:01:03Z,2022,4,1,243.1674,243.1674,89.88738,-23.16534,1021.6,-1.74,-3.25,yes,yes,yes,300434063448890,SIMB3,CRREL,unknown,North
2022-08-31T08:00:48Z,2022,8,0,243.3339,243.3339,89.90027,-21.90704,1020.8,-1.74,-1.94,yes,yes,yes,300434063448890,SIMB3,CRREL,unknown,North
2022-08-31T12:01:00Z,2022,12,0,243.5007,243.5007,89.90368,-20.35624,1020.2,-1.74,-2.12,yes,yes,yes,300434063448890,SIMB3,CRREL,unknown,North
2022-08-31T16:01:03Z,2022,16,1,243.6674,243.6674,89.90172,-13.34725,1020.4,-1.74,-4.62,yes,yes,yes,300434063448890,SIMB3,CRREL,unknown,North
2022-08-31T20:00:57Z,2022,20,0,243.834,243.834,89.88945,-6.14757,1020.1,-1.74,-5.19,yes,yes,yes,300434063448890,SIMB3,CRREL,unknown,North
2022-09-01T00:01:35Z,2022,0,1,244.0011,244.0011,89.87959,-2.92303,1018.7,-1.74,-4.81,yes,yes,yes,300434063448890,SIMB3,CRREL,unknown,North
2022-09-01T04:00:54Z,2022,4,0,244.1673,244.1673,89.86832,2.90332,1017.5,-1.76,-5.81,yes,yes,yes,300434063448890,SIMB3,CRREL,unknown,North
2022-09-01T08:00:57Z,2022,8,0,244.334,244.334,89.85047,8.46594,1017.6,-1.74,-5.5,yes,yes,yes,300434063448890,SIMB3,CRREL,unknown,North
2022-09-01T12:00:51Z,2022,12,0,244.5006,244.5006,89.8388,14.21524,1017.5,-1.79,-5.12,yes,yes,yes,300434063448890,SIMB3,CRREL,unknown,North
2022-09-01T16:00:54Z,2022,16,0,244.6673,244.6673,89.82241,21.43089,1016.1,-1.81,-4.44,yes,yes,yes,300434063448890,SIMB3,CRREL,unknown,North
2022-09-01T20:00:48Z,2022,20,0,244.8339,244.8339,89.80625,26.56945,1014.3,-1.76,-3.62,yes,yes,yes,300434063448890,SIMB3,CRREL,unknown,North
2022-09-02T00:01:00Z,2022,0,0,245.0007,245.0007,89.7942,32.4225,1012.3,-1.76,-3.06,yes,yes,yes,300434063448890,SIMB3,CRREL,unknown,North
2022-09-02T04:01:46Z,2022,4,1,245.1679,245.1679,89.76774,36.65526,1010.5,-1.79,-2.81,yes,yes,yes,300434063448890,SIMB3,CRREL,unknown,North
2022-09-02T08:00:57Z,2022,8,0,245.334,245.334,89.73185,36.19384,1011.1,-1.79,-3.0,yes,yes,yes,300434063448890,SIMB3,CRREL,unknown,North
2022-09-02T12:01:52Z,2022,12,1,245.5013,245.5013,89.7073,34.88607,1012.5,-1.8,-2.69,yes,yes,yes,300434063448890,SIMB3,CRREL,unknown,North
2022-09-02T16:01:55Z,2022,16,1,245.668,245.668,89.68044,34.47196,1013.3,-1.83,-2.56,yes,yes,yes,300434063448890,SIMB3,CRREL,unknown,North
2022-09-02T20:00:48Z,2022,20,0,245.8339,245.8339,89.64532,33.87001,1014.6,-1.78,-3.0,yes,yes,yes,300434063448890,SIMB3,CRREL,unknown,North
2022-09-03T00:04:19Z,2022,0,4,246.003,246.003,89.62045,32.17228,1015.9,-1.81,-3.0,yes,yes,yes,300434063448890,SIMB3,CRREL,unknown,North
2022-09-03T04:01:03Z,2022,4,1,246.1674,246.1674,89.59149,31.58299,1017.1,-1.83,-3.62,yes,yes,yes,300434063448890,SIMB3,CRREL,unknown,North
2022-09-03T08:00:57Z,2022,8,0,246.334,246.334,89.55463,30.60298,1019.0,-1.83,-4.81,yes,yes,yes,300434063448890,SIMB3,CRREL,unknown,North
2022-09-03T12:01:00Z,2022,12,1,246.5007,246.5007,89.53394,29.79515,1020.0,-1.83,-4.94,yes,yes,yes,300434063448890,SIMB3,CRREL,unknown,North
2022-09-03T16:01:03Z,2022,16,1,246.6674,246.6674,89.50814,30.59007,1020.6,-1.85,-4.44,yes,yes,yes,300434063448890,SIMB3,CRREL,unknown,North
2022-09-03T20:00:48Z,2022,20,0,246.8339,246.8339,89.47567,31.00965,1020.6,-1.85,-4.38,yes,yes,yes,300434063448890,SIMB3,CRREL,unknown,North
2022-09-04T04:00:54Z,2022,4,0,247.1673,247.1673,89.43239,32.02709,1020.4,-1.85,-3.25,yes,yes,yes,300434063448890,SIMB3,CRREL,unknown,North
2022-09-04T08:00:57Z,2022,8,0,247.334,247.334,89.40545,32.37341,1021.2,-1.85,-1.94,yes,yes,yes,300434063448890,SIMB3,CRREL,unknown,North
2022-09-04T12:01:00Z,2022,12,0,247.5007,247.5007,89.39021,32.38607,1021.5,-1.85,-2.19,yes,yes,yes,300434063448890,SIMB3,CRREL,unknown,North
2022-09-04T16:00:54Z,2022,16,0,247.6673,247.6673,89.3747,33.05784,1021.1,-1.85,-3.19,yes,yes,yes,300434063448890,SIMB3,CRREL,unknown,North
2022-09-04T20:01:06Z,2022,20,1,247.8341,247.8341,89.35845,33.57988,1020.5,-1.85,-5.94,yes,yes,yes,300434063448890,SIMB3,CRREL,unknown,North
2022-09-05T00:01:17Z,2022,0,1,248.0009,248.0009,89.35681,34.07932,1018.6,-1.85,-6.56,yes,yes,yes,300434063448890,SIMB3,CRREL,unknown,North
2022-09-05T04:02:38Z,2022,4,2,248.1685,248.1685,89.36102,35.17918,1016.1,-1.85,-4.06,yes,yes,yes,300434063448890,SIMB3,CRREL,unknown,North
2022-09-05T08:00:57Z,2022,8,0,248.334,248.334,89.35339,36.22882,1014.8,-1.85,-3.75,yes,yes,yes,300434063448890,SIMB3,CRREL,unknown,North
2022-09-05T12:01:52Z,2022,12,1,248.5013,248.5013,89.34245,36.64114,1014.4,-1.85,-3.88,yes,yes,yes,300434063448890,SIMB3,CRREL,unknown,North
2022-09-05T16:01:03Z,2022,16,0,248.6674,248.6674,89.33085,37.04794,1013.7,-1.85,-4.06,yes,yes,yes,300434063448890,SIMB3,CRREL,unknown,North
2022-09-05T20:00:57Z,2022,20,0,248.834,248.834,89.31225,37.54474,1013.2,-1.85,-4.56,yes,yes,yes,300434063448890,SIMB3,CRREL,unknown,North
2022-09-06T00:03:36Z,2022,0,3,249.0025,249.0025,89.29526,38.32988,1012.3,-1.85,-7.19,yes,yes,yes,300434063448890,SIMB3,CRREL,unknown,North
2022-09-06T04:01:03Z,2022,4,1,249.1674,249.1674,89.27655,39.14676,1011.4,-1.85,-5.44,yes,yes,yes,300434063448890,SIMB3,CRREL,unknown,North
2022-09-06T08:00:48Z,2022,8,0,249.3339,249.3339,89.25442,39.25294,1011.1,-1.85,-5.06,yes,yes,yes,300434063448890,SIMB3,CRREL,unknown,North
2022-09-06T12:01:00Z,2022,12,0,249.5007,249.5007,89.23844,38.96726,1011.6,-1.85,-5.44,yes,yes,yes,300434063448890,SIMB3,CRREL,unknown,North
2022-09-06T16:01:03Z,2022,16,1,249.6674,249.6674,89.21967,38.93656,1011.1,-1.85,-5.69,yes,yes,yes,300434063448890,SIMB3,CRREL,unknown,North
2022-09-06T20:00:48Z,2022,20,0,249.8339,249.8339,89.19279,38.82501,1010.8,-1.85,-4.88,yes,yes,yes,300434063448890,SIMB3,CRREL,unknown,North
2022-09-07T00:01:00Z,2022,0,1,250.0007,250.0007,89.17154,38.99115,1009.4,-1.85,-3.75,yes,yes,yes,300434063448890,SIMB3,CRREL,unknown,North
2022-09-07T04:00:54Z,2022,4,0,250.1673,250.1673,89.14837,39.32468,1007.8,-1.85,-3.0,yes,yes,yes,300434063448890,SIMB3,CRREL,unknown,North
2022-09-07T08:00:57Z,2022,8,0,250.334,250.334,89.12363,38.78789,1007.7,-1.85,-4.12,yes,yes,yes,300434063448890,SIMB3,CRREL,unknown,North
2022-09-07T12:00:51Z,2022,12,0,250.5006,250.5006,89.10266,39.01551,1006.3,-1.85,-3.12,yes,yes,yes,300434063448890,SIMB3,CRREL,unknown,North
2022-09-07T16:00:54Z,2022,16,0,250.6673,250.6673,89.07464,39.92142,1004.1,-1.85,-3.75,yes,yes,yes,300434063448890,SIMB3,CRREL,unknown,North
2022-09-07T20:00:57Z,2022,20,0,250.834,250.834,89.04921,40.08744,1003.2,-1.85,-4.25,yes,yes,yes,300434063448890,SIMB3,CRREL,unknown,North
2022-09-08T00:01:00Z,2022,0,0,251.0007,251.0007,89.03061,39.15989,1004.7,-1.85,-4.56,yes,yes,yes,300434063448890,SIMB3,CRREL,unknown,North
2022-09-08T04:02:38Z,2022,4,2,251.1685,251.1685,89.01455,39.01765,1004.7,-1.85,-4.25,yes,yes,yes,300434063448890,SIMB3,CRREL,unknown,North
2022-09-08T08:00:57Z,2022,8,0,251.334,251.334,88.98769,38.34697,1005.3,-1.86,-4.38,yes,yes,yes,300434063448890,SIMB3,CRREL,unknown,North
2022-09-08T12:01:00Z,2022,12,0,251.5007,251.5007,88.9746,37.17108,1006.5,-1.85,-4.19,yes,yes,yes,300434063448890,SIMB3,CRREL,unknown,North
2022-09-08T16:01:03Z,2022,16,1,251.6674,251.6674,88.96979,36.49165,1007.4,-1.85,-4.62,yes,yes,yes,300434063448890,SIMB3,CRREL,unknown,North
2022-09-08T20:00:57Z,2022,20,0,251.834,251.834,88.95626,35.71261,1008.6,-1.85,-5.0,yes,yes,yes,300434063448890,SIMB3,CRREL,unknown,North
2022-09-09T00:01:09Z,2022,0,1,252.0008,252.0008,88.95091,34.77988,1009.3,-1.85,-5.19,yes,yes,yes,300434063448890,SIMB3,CRREL,unknown,North
2022-09-09T04:01:03Z,2022,4,1,252.1674,252.1674,88.94416,34.44368,1009.6,-1.85,-3.88,yes,yes,yes,300434063448890,SIMB3,CRREL,unknown,North
2022-09-09T08:00:48Z,2022,8,0,252.3339,252.3339,88.93074,33.74727,1009.8,-1.85,-3.69,yes,yes,yes,300434063448890,SIMB3,CRREL,unknown,North
2022-09-09T12:00:51Z,2022,12,0,252.5006,252.5006,88.92894,33.12183,1010.2,-1.85,-4.19,yes,yes,yes,300434063448890,SIMB3,CRREL,unknown,North
2022-09-09T16:01:03Z,2022,16,1,252.6674,252.6674,88.92298,33.02635,1009.5,-1.85,-4.62,yes,yes,yes,300434063448890,SIMB3,CRREL,unknown,North
2022-09-09T20:00:48Z,2022,20,0,252.8339,252.8339,88.90688,32.26304,1008.8,-1.85,-4.31,yes,yes,yes,300434063448890,SIMB3,CRREL,unknown,North
2022-09-10T00:01:09Z,2022,0,1,253.0008,253.0008,88.90179,30.96753,1009.2,-1.85,-4.5,yes,yes,yes,300434063448890,SIMB3,CRREL,unknown,North
2022-09-10T04:00:54Z,2022,4,0,253.1673,253.1673,88.90735,30.64387,1011.0,-1.85,-4.75,yes,yes,yes,300434063448890,SIMB3,CRREL,unknown,North
2022-09-10T08:00:57Z,2022,8,0,253.334,253.334,88.91017,30.32927,1012.9,-1.85,-5.62,yes,yes,yes,300434063448890,SIMB3,CRREL,unknown,North
2022-09-10T12:00:51Z,2022,12,0,253.5006,253.5006,88.91307,29.37486,1014.7,-1.85,-5.94,yes,yes,yes,300434063448890,SIMB3,CRREL,unknown,North
2022-09-10T16:00:54Z,2022,16,0,253.6673,253.6673,88.91138,28.87673,1016.0,-1.85,-5.31,yes,yes,yes,300434063448890,SIMB3,CRREL,unknown,North
2022-09-10T20:01:49Z,2022,20,1,253.8346,253.8346,88.90584,28.13423,1017.2,-1.85,-5.38,yes,yes,yes,300434063448890,SIMB3,CRREL,unknown,North
2022-09-11T04:02:03Z,2022,4,2,254.1681,254.1681,88.89588,26.95913,1018.4,-1.85,-4.0,yes,yes,yes,300434063448890,SIMB3,CRREL,unknown,North
2022-09-11T08:01:23Z,2022,8,1,254.3343,254.3343,88.87686,26.23225,1018.7,-1.85,-5.94,yes,yes,yes,300434063448890,SIMB3,CRREL,unknown,North
2022-09-11T12:00:51Z,2022,12,0,254.5006,254.5006,88.86507,25.35578,1017.7,-1.85,-6.12,yes,yes,yes,300434063448890,SIMB3,CRREL,unknown,North
2022-09-11T16:00:54Z,2022,16,0,254.6673,254.6673,88.84127,25.75648,1013.9,-1.85,-4.0,yes,yes,yes,300434063448890,SIMB3,CRREL,unknown,North
2022-09-11T20:00:57Z,2022,20,0,254.834,254.834,88.79826,25.13122,1011.0,-1.85,-3.31,yes,yes,yes,300434063448890,SIMB3,CRREL,unknown,North
2022-09-12T00:01:00Z,2022,0,1,255.0007,255.0007,88.78711,24.08766,1008.8,-1.85,-1.75,yes,yes,yes,300434063448890,SIMB3,CRREL,unknown,North
2022-09-12T04:01:03Z,2022,4,1,255.1674,255.1674,88.77394,24.12344,1007.2,-1.85,-1.38,yes,yes,yes,300434063448890,SIMB3,CRREL,unknown,North
2022-09-12T08:00:48Z,2022,8,0,255.3339,255.3339,88.76144,22.79984,1009.0,-1.85,-2.88,yes,yes,yes,300434063448890,SIMB3,CRREL,unknown,North
2022-09-12T12:00:51Z,2022,12,0,255.5006,255.5006,88.78705,21.0937,1012.5,-1.85,-4.0,yes,yes,yes,300434063448890,SIMB3,CRREL,unknown,North
2022-09-12T16:00:54Z,2022,16,0,255.6673,255.6673,88.81034,20.56479,1015.6,-1.85,-4.0,yes,yes,yes,300434063448890,SIMB3,CRREL,unknown,North
2022-09-12T20:00:57Z,2022,20,0,255.834,255.834,88.80729,19.50314,1017.6,-1.85,-3.62,yes,yes,yes,300434063448890,SIMB3,CRREL,unknown,North
2022-09-13T00:02:52Z,2022,0,2,256.002,256.002,88.81371,18.3888,1019.2,-1.85,-2.94,yes,yes,yes,300434063448890,SIMB3,CRREL,unknown,North
2022-09-13T04:01:03Z,2022,4,0,256.1674,256.1674,88.81207,17.80874,1020.1,-1.85,-3.06,yes,yes,yes,300434063448890,SIMB3,CRREL,unknown,North
2022-09-13T08:00:57Z,2022,8,0,256.334,256.334,88.8053,16.57384,1022.0,-1.85,-3.81,yes,yes,yes,300434063448890,SIMB3,CRREL,unknown,North
2022-09-13T12:01:00Z,2022,12,1,256.5007,256.5007,88.8171,15.7085,1024.2,-1.85,-4.88,yes,yes,yes,300434063448890,SIMB3,CRREL,unknown,North
2022-09-13T16:00:54Z,2022,16,0,256.6673,256.6673,88.8167,15.63007,1025.7,-1.85,-5.5,yes,yes,yes,300434063448890,SIMB3,CRREL,unknown,North
2022-09-13T20:00:57Z,2022,20,1,256.834,256.834,88.80663,14.92884,1026.9,-1.85,-5.94,yes,yes,yes,300434063448890,SIMB3,CRREL,unknown,North
2022-09-14T00:05:36Z,2022,0,5,257.0039,257.0039,88.80734,14.5784,1027.9,-1.85,-7.12,yes,yes,yes,300434063448890,SIMB3,CRREL,unknown,North
2022-09-14T04:01:03Z,2022,4,0,257.1674,257.1674,88.79218,14.67766,1027.8,-1.85,-8.69,yes,yes,yes,300434063448890,SIMB3,CRREL,unknown,North
2022-09-14T08:01:49Z,2022,8,1,257.3346,257.3346,88.77204,14.34168,1027.5,-1.85,-6.0,yes,yes,yes,300434063448890,SIMB3,CRREL,unknown,North
2022-09-14T12:01:00Z,2022,12,0,257.5007,257.5007,88.76125,14.05871,1027.0,-1.85,-5.06,yes,yes,yes,300434063448890,SIMB3,CRREL,unknown,North
2022-09-14T16:00:54Z,2022,16,0,257.6673,257.6673,88.7362,13.94302,1026.1,-1.85,-6.5,yes,yes,yes,300434063448890,SIMB3,CRREL,unknown,North
2022-09-14T20:01:23Z,2022,20,1,257.8343,257.8343,88.71779,13.10745,1026.5,-1.85,-7.38,yes,yes,yes,300434063448890,SIMB3,CRREL,unknown,North
2022-09-15T00:01:00Z,2022,0,1,258.0007,258.0007,88.71612,12.74402,1027.7,-1.85,-10.06,yes,yes,yes,300434063448890,SIMB3,CRREL,unknown,North
2022-09-15T04:00:54Z,2022,4,0,258.1673,258.1673,88.69777,12.83902,1028.3,-1.85,-11.69,yes,yes,yes,300434063448890,SIMB3,CRREL,unknown,North
2022-09-15T08:00:48Z,2022,8,0,258.3339,258.3339,88.68106,12.23268,1029.4,-1.85,-10.31,yes,yes,yes,300434063448890,SIMB3,CRREL,unknown,North
2022-09-15T12:01:00Z,2022,12,1,258.5007,258.5007,88.67558,12.00699,1030.5,-1.85,-11.88,yes,yes,yes,300434063448890,SIMB3,CRREL,unknown,North
2022-09-15T16:00:54Z,2022,16,0,258.6673,258.6673,88.66133,11.97911,1031.2,-1.85,-13.12,yes,yes,yes,300434063448890,SIMB3,CRREL,unknown,North
2022-09-15T20:00:48Z,2022,20,0,258.8339,258.8339,88.65266,11.62173,1032.0,-1.85,-11.5,yes,yes,yes,300434063448890,SIMB3,CRREL,unknown,North
2022-09-16T00:02:35Z,2022,0,2,259.0018,259.0018,88.64851,11.50417,1033.3,-1.85,-8.75,yes,yes,yes,300434063448890,SIMB3,CRREL,unknown,North
2022-09-16T04:00:54Z,2022,4,0,259.1673,259.1673,88.63791,11.34046,1033.2,-1.85,-10.75,yes,yes,yes,300434063448890,SIMB3,CRREL,unknown,North
2022-09-16T08:01:23Z,2022,8,1,259.3343,259.3343,88.62935,11.15605,1032.9,-1.85,-10.25,yes,yes,yes,300434063448890,SIMB3,CRREL,unknown,North
2022-09-16T12:01:00Z,2022,12,1,259.5007,259.5007,88.62182,11.10095,1033.1,-1.85,-13.0,yes,yes,yes,300434063448890,SIMB3,CRREL,unknown,North
2022-09-16T16:00:54Z,2022,16,0,259.6673,259.6673,88.61352,11.06206,1032.9,-1.85,-13.62,yes,yes,yes,300434063448890,SIMB3,CRREL,unknown,North
2022-09-16T20:00:57Z,2022,20,0,259.834,259.834,88.60774,11.00571,1033.0,-1.85,-11.06,yes,yes,yes,300434063448890,SIMB3,CRREL,unknown,North
2022-09-17T00:01:00Z,2022,0,1,260.0007,260.0007,88.60171,10.93954,1033.2,-1.85,-8.88,yes,yes,yes,300434063448890,SIMB3,CRREL,unknown,North
2022-09-17T04:00:54Z,2022,4,0,260.1673,260.1673,88.59374,10.82761,1032.7,-1.85,-7.88,yes,yes,yes,300434063448890,SIMB3,CRREL,unknown,North
2022-09-17T08:01:06Z,2022,8,1,260.3341,260.3341,88.58558,10.71452,1032.4,-1.85,-7.44,yes,yes,yes,300434063448890,SIMB3,CRREL,unknown,North
2022-09-17T12:00:51Z,2022,12,0,260.5006,260.5006,88.57733,10.55918,1032.3,-1.85,-7.12,yes,yes,yes,300434063448890,SIMB3,CRREL,unknown,North
2022-09-17T16:01:03Z,2022,16,0,260.6674,260.6674,88.56883,10.36648,1031.3,-1.85,-7.19,yes,yes,yes,300434063448890,SIMB3,CRREL,unknown,North
2022-09-17T20:01:14Z,2022,20,1,260.8342,260.8342,88.56219,10.19377,1030.3,-1.85,-7.12,yes,yes,yes,300434063448890,SIMB3,CRREL,unknown,North
2022-09-18T00:01:00Z,2022,0,1,261.0007,261.0007,88.55708,10.06657,1029.5,-1.85,-7.19,yes,yes,yes,300434063448890,SIMB3,CRREL,unknown,North
2022-09-18T04:00:54Z,2022,4,0,261.1673,261.1673,88.55058,9.99541,1028.6,-1.85,-8.75,yes,yes,yes,300434063448890,SIMB3,CRREL,unknown,North
2022-09-18T08:00:57Z,2022,8,0,261.334,261.334,88.54325,9.98819,1028.9,-1.85,-8.88,yes,yes,yes,300434063448890,SIMB3,CRREL,unknown,North
2022-09-18T12:00:51Z,2022,12,0,261.5006,261.5006,88.53526,9.97716,1029.4,-1.85,-8.25,yes,yes,yes,300434063448890,SIMB3,CRREL,unknown,North
2022-09-18T16:00:54Z,2022,16,0,261.6673,261.6673,88.5266,10.01445,1029.4,-1.85,-13.94,yes,yes,yes,300434063448890,SIMB3,CRREL,unknown,North
2022-09-18T20:00:57Z,2022,20,0,261.834,261.834,88.51935,9.97977,1029.1,-1.85,-15.5,yes,yes,yes,300434063448890,SIMB3,CRREL,unknown,North
2022-09-19T00:02:52Z,2022,0,2,262.002,262.002,88.5121,9.90575,1029.1,-1.85,-9.88,yes,yes,yes,300434063448890,SIMB3,CRREL,unknown,North
2022-09-19T04:00:54Z,2022,4,0,262.1673,262.1673,88.50371,9.83532,1028.1,-1.85,-13.38,yes,yes,yes,300434063448890,SIMB3,CRREL,unknown,North
2022-09-19T08:01:23Z,2022,8,1,262.3343,262.3343,88.49379,9.69465,1027.8,-1.85,-11.25,yes,yes,yes,300434063448890,SIMB3,CRREL,unknown,North
2022-09-19T12:01:00Z,2022,12,1,262.5007,262.5007,88.48548,9.67601,1027.6,-1.85,-11.81,yes,yes,yes,300434063448890,SIMB3,CRREL,unknown,North
2022-09-19T16:00:54Z,2022,16,0,262.6673,262.6673,88.47331,9.8228,1026.1,-1.85,-10.19,yes,yes,yes,300434063448890,SIMB3,CRREL,unknown,North
2022-09-19T20:00:57Z,2022,20,0,262.834,262.834,88.45998,10.08511,1025.5,-1.85,-10.31,yes,yes,yes,300434063448890,SIMB3,CRREL,unknown,North
2022-09-20T00:02:52Z,2022,0,2,263.002,263.002,88.44949,10.32846,1024.9,-1.85,-13.75,yes,yes,yes,300434063448890,SIMB3,CRREL,unknown,North
2022-09-20T04:01:03Z,2022,4,1,263.1674,263.1674,88.43906,10.46018,1024.2,-1.85,-14.44,yes,yes,yes,300434063448890,SIMB3,CRREL,unknown,North
2022-09-20T08:01:23Z,2022,8,1,263.3343,263.3343,88.43086,10.55966,1024.2,-1.85,-15.12,yes,yes,yes,300434063448890,SIMB3,CRREL,unknown,North
2022-09-20T12:00:51Z,2022,12,0,263.5006,263.5006,88.42404,10.71239,1024.5,-1.85,-11.81,yes,yes,yes,300434063448890,SIMB3,CRREL,unknown,North
2022-09-20T16:00:54Z,2022,16,0,263.6673,263.6673,88.41723,10.79142,1024.3,-1.85,-10.38,yes,yes,yes,300434063448890,SIMB3,CRREL,unknown,North
2022-09-20T20:01:06Z,2022,20,1,263.8341,263.8341,88.4119,10.87347,1024.6,-1.85,-9.5,yes,yes,yes,300434063448890,SIMB3,CRREL,unknown,North
2022-09-21T00:01:00Z,2022,0,1,264.0007,264.0007,88.40758,10.99826,1025.2,-1.85,-9.0,yes,yes,yes,300434063448890,SIMB3,CRREL,unknown,North
2022-09-21T04:01:03Z,2022,4,1,264.1674,264.1674,88.40654,11.10516,1025.3,-1.85,-14.12,yes,yes,yes,300434063448890,SIMB3,CRREL,unknown,North
2022-09-21T08:00:57Z,2022,8,0,264.334,264.334,88.40991,11.2258,1026.0,-1.85,-9.06,yes,yes,yes,300434063448890,SIMB3,CRREL,unknown,North
2022-09-21T12:00:51Z,2022,12,0,264.5006,264.5006,88.41555,11.45383,1026.7,-1.85,-8.19,yes,yes,yes,300434063448890,SIMB3,CRREL,unknown,North
2022-09-21T16:00:54Z,2022,16,0,264.6673,264.6673,88.42553,11.63739,1026.6,-1.85,-7.25,yes,yes,yes,300434063448890,SIMB3,CRREL,unknown,North
2022-09-21T20:00:48Z,2022,20,0,264.8339,264.8339,88.44337,11.71914,1026.4,-1.85,-7.44,yes,yes,yes,300434063448890,SIMB3,CRREL,unknown,North
2022-09-22T00:03:01Z,2022,0,3,265.0021,265.0021,88.45961,11.81561,1026.7,-1.85,-8.88,yes,yes,yes,300434063448890,SIMB3,CRREL,unknown,North